User: anonymous   Login
Location: Drayton Valley
(53.2170°N, 114.9830°W)
Time: 05:29:12
(UTC-06:00)
Language:

Cosmos 1302 Rocket - Orbit

View from above orbital plane
View from above orbital plane
View from above satellite
View from above satellite

Ground track
Ground track

The orbit data is extracted from the following two-line orbital elements,

1 12792U 81084B   18110.85817060 +.00000025 +00000-0 +17164-4 0  9998
2 12792 074.0306 189.0066 0013038 035.4769 324.7249 14.37508700918994
Epoch (UTC): 20 April 2018 20:35:45
Eccentricity: 0.0013038
inclination: 74.0306°
perigee height: 757 km
apogee height: 776 km
right ascension of ascending node: 189.0066°
argument of perigee: 35.4769°
revolutions per day: 14.37508700
mean anomaly at epoch: 324.7249°
orbit number at epoch: 91899

The dashed part of the orbit path shows where the satellite is in the earth's shadow,  

DLR